This demonstration page uses our WeatherBlox Daily Observations layout. Learn more.

Hourly Observations for May 13, 2020

Temp ( °F °C ) Dew Point ( °F °C ) Humidity (%) Winds ( mph kmh ) Pressure ( in mb ) Visibility ( mi km ) Precip ( " mm )
12:15 am 00:15 Clear 46 8 32 0 57 57 undefined N/A 30.25 1024 10 16.0934 0 0
12:35 am 00:35 Clear 48 9 30 -1 50 50 undefined N/A 30.26 1025 10 16.0934 0 0
12:55 am 00:55 Clear 46 8 32 0 57 57 undefined N/A 30.26 1025 10 16.0934 0 0
1:15 am 01:15 Clear 43 6 32 0 66 66 undefined N/A 30.26 1025 10 16.0934 0 0
1:35 am 01:35 Clear 43 6 32 0 66 66 SSW 3 6 30.26 1025 10 16.0934 0 0
1:55 am 01:55 Clear 43 6 32 0 66 66 SSW 6 9 30.26 1025 10 16.0934 0 0
2:15 am 02:15 Clear 43 6 32 0 66 66 Calm 30.27 1025 10 16.0934 0 0
2:35 am 02:35 Clear 41 5 32 0 70 70 SW 5 7 30.27 1025 10 16.0934 0 0
2:55 am 02:55 Clear 41 5 32 0 70 70 SW 5 7 30.27 1025 10 16.0934 0 0
3:15 am 03:15 Clear 39 4 32 0 75 75 WSW 6 9 30.28 1025 10 16.0934 0 0
3:35 am 03:35 Clear 39 4 34 1 81 81 WSW 5 7 30.28 1025 10 16.0934 0 0
3:55 am 03:55 Clear 37 3 34 1 87 87 W 6 9 30.29 1026 10 16.0934 0 0
4:15 am 04:15 Clear 37 3 34 1 87 87 W 6 9 30.29 1026 10 16.0934 0 0
4:35 am 04:35 Clear 39 4 32 0 75 75 WSW 5 7 30.3 1026 10 16.0934 0 0
4:55 am 04:55 Clear 37 3 34 1 87 87 WSW 6 9 30.3 1026 10 16.0934 0 0
5:15 am 05:15 Clear 41 5 32 0 70 70 W 6 9 30.3 1026 10 16.0934 0 0
5:35 am 05:35 Clear 39 4 32 0 75 75 W 5 7 30.31 1026 10 16.0934 0 0
5:55 am 05:55 Clear 39 4 32 0 75 75 W 5 7 30.32 1027 10 16.0934 0 0
6:15 am 06:15 Sunny 41 5 32 0 70 70 W 3 6 30.32 1027 10 16.0934 0 0
6:35 am 06:35 Sunny 43 6 32 0 66 66 Calm 30.33 1027 10 16.0934 0 0
6:55 am 06:55 Sunny 45 7 32 0 61 61 Calm 30.33 1027 10 16.0934 0 0
7:15 am 07:15 Sunny 45 7 34 1 66 66 WNW 3 6 30.34 1027 10 16.0934 0 0
7:35 am 07:35 Sunny 50 10 34 1 54 54 Calm 30.34 1027 10 16.0934 0 0
7:55 am 07:55 Sunny 50 10 37 3 62 62 SE 3 6 30.36 1028 10 16.0934 0 0
8:15 am 08:15 Sunny 50 10 36 2 58 58 Calm 30.36 1028 10 16.0934 0 0
8:35 am 08:35 Sunny 54 12 37 3 54 54 Calm 30.35 1028 10 16.0934 0 0
8:55 am 08:55 Sunny 55 13 36 2 47 47 Calm 30.35 1028 10 16.0934 0 0
9:15 am 09:15 Sunny 57 14 32 0 39 39 W 6 9 30.35 1028 10 16.0934 0 0
9:35 am 09:35 Sunny 59 15 34 1 39 39 W 10 17 30.35 1028 10 16.0934 0 0
9:55 am 09:55 Sunny 59 15 36 2 42 42 Calm 30.35 1028 10 16.0934 0 0
10:15 am 10:15 Sunny 61 16 34 1 36 36 SW 8 13 30.34 1027 10 16.0934 0 0
10:35 am 10:35 Sunny 61 16 34 1 36 36 WNW 9 15 30.34 1027 10 16.0934 0 0
10:55 am 10:55 Sunny 63 17 34 1 34 34 WNW 15 24 30.34 1027 10 16.0934 0 0
11:15 am 11:15 Sunny 63 17 34 1 34 34 NNW 8 13 30.33 1027 10 16.0934 0 0
11:35 am 11:35 Sunny 63 17 36 2 37 37 WNW 12 19 30.33 1027 10 16.0934 0 0
11:55 am 11:55 Sunny 63 17 36 2 37 37 WNW 7 11 30.33 1027 10 16.0934 0 0
12:15 pm 12:15 Sunny 64 18 36 2 34 34 NW 8 13 30.32 1027 10 16.0934 0 0
12:35 pm 12:35 Sunny 64 18 37 3 37 37 WNW 15 24 30.3 1026 10 16.0934 0 0
12:55 pm 12:55 Sunny 64 18 36 2 34 34 W 16 26 30.29 1026 10 16.0934 0 0
1:15 pm 13:15 Sunny 64 18 34 1 32 32 WNW 8 13 30.29 1026 10 16.0934 0 0
1:35 pm 13:35 Partly Cloudy 66 19 37 3 35 35 W 10 17 30.28 1025 10 16.0934 0 0
1:55 pm 13:55 Sunny 64 18 36 2 34 34 NW 5 7 30.27 1025 10 16.0934 0 0
2:15 pm 14:15 Partly Cloudy 64 18 34 1 32 32 N 3 6 30.27 1025 10 16.0934 0 0
2:35 pm 14:35 Sunny 66 19 34 1 30 30 NNW 9 15 30.26 1025 10 16.0934 0 0
2:55 pm 14:55 Sunny 68 20 36 2 30 30 W 5 7 30.26 1025 10 16.0934 0 0
3:15 pm 15:15 Partly Cloudy 68 20 36 2 30 30 WNW 9 15 30.26 1025 10 16.0934 0 0
3:35 pm 15:35 Partly Cloudy 68 20 34 1 28 28 NNW 6 9 30.25 1024 10 16.0934 0 0
3:55 pm 15:55 Sunny 70 21 36 2 29 29 W 5 7 30.24 1024 10 16.0934 0 0
4:15 pm 16:15 Sunny 68 20 34 1 28 28 SSW 7 11 30.23 1024 10 16.0934 0 0
4:35 pm 16:35 Partly Cloudy 70 21 34 1 27 27 W 12 19 30.23 1024 10 16.0934 0 0
4:55 pm 16:55 Partly Cloudy 70 21 36 2 29 29 NW 8 13 30.23 1024 10 16.0934 0 0
5:15 pm 17:15 Sunny 70 21 36 2 29 29 W 8 13 30.23 1024 10 16.0934 0 0
5:35 pm 17:35 Sunny 70 21 36 2 29 29 WSW 7 11 30.23 1024 10 16.0934 0 0
5:55 pm 17:55 Sunny 70 21 36 2 29 29 S 8 13 30.23 1024 10 16.0934 0 0
6:15 pm 18:15 Partly Cloudy 68 20 36 2 30 30 Calm 30.23 1024 10 16.0934 0 0
6:35 pm 18:35 Sunny 70 21 36 2 29 29 SW 3 6 30.23 1024 10 16.0934 0 0
6:55 pm 18:55 Sunny 70 21 36 2 29 29 SW 5 7 30.23 1024 10 16.0934 0 0
7:15 pm 19:15 Sunny 68 20 36 2 30 30 S 5 7 30.23 1024 10 16.0934 0 0
7:35 pm 19:35 Sunny 66 19 36 2 32 32 S 8 13 30.24 1024 10 16.0934 0 0
7:55 pm 19:55 Sunny 64 18 36 2 34 34 S 5 7 30.24 1024 10 16.0934 0 0
8:15 pm 20:15 Clear 63 17 36 2 37 37 S 6 9 30.26 1025 10 16.0934 0 0
8:35 pm 20:35 Clear 61 16 36 2 39 39 S 5 7 30.26 1025 10 16.0934 0 0
8:55 pm 20:55 Clear 61 16 36 2 39 39 SSW 5 7 30.26 1025 10 16.0934 0 0
9:15 pm 21:15 Clear 57 14 41 5 55 55 SW 3 6 30.27 1025 10 16.0934 0 0
9:35 pm 21:35 Clear 55 13 43 6 63 63 Calm 30.27 1025 10 16.0934 0 0
9:55 pm 21:55 Clear 55 13 41 5 59 59 Calm 30.28 1025 10 16.0934 0 0
10:15 pm 22:15 Clear 54 12 41 5 63 63 Calm 30.28 1026 10 16.0934 0 0
10:35 pm 22:35 Clear 52 11 41 5 67 67 NNW 3 6 30.28 1026 10 16.0934 0 0
10:55 pm 22:55 Clear 52 11 41 5 67 67 Calm 30.29 1026 10 16.0934 0 0
11:15 pm 23:15 Clear 50 10 43 6 76 76 Calm 30.3 1026 10 16.0934 0 0
11:35 pm 23:35 Clear 50 10 43 6 76 76 Calm 30.3 1026 10 16.0934 0 0
11:55 pm 23:55 Clear 50 10 41 5 71 71 Calm 30.29 1026 10 16.0934 0 0

Powered by AerisWeather